Regional Weather Roundup
Issued by NWS Midland/Odessa, TX

Skip options and go directly to product.
Home | Oldest Version | Previous Version | Current Version | All | Text Only | Save Text | Print | Product List | Glossary On

Skip product version selection by date and time.   
954
ASUS44 KMAF 252210
RWRMAF
MIDLAND AREA WEATHER ROUNDUP
NATIONAL WEATHER SERVICE MIDLAND TX
400 PM CST TUE NOV 25 2014

...IN SOUTHWEST TEXAS AND SOUTHEAST NEW MEXICO...

CITY           SKY/WX    TMP DP  RH WIND       PRES   REMARKS
ALPINE         SUNNY     54   4  13 W12       30.32F
ANDREWS        FAIR      53  12  19 W18G25    30.19F
ARTESIA        NOT AVBL
BIG SPRING     SUNNY     59  20  22 SW15G23   30.23F
CARLSBAD       SUNNY     60   4  10 SW23G29   30.17F
DRYDEN           N/A     64  15  15 SW10      30.22F
FORT STOCKTON  SUNNY     56  11  16 W9        30.25F
GUAD PASS      SUNNY     49   5  16 SW35G45   30.25S WCI  40
HOBBS          SUNNY     52  10  19 SW17G26   30.18F
MARFA          SUNNY     52   3  14 W18       30.31F
MIDLAND AIRPK  SUNNY     56  16  20 SW18      30.22F
MIDLAND INTL   SUNNY     55  15  20 SW21      30.22F
ODESSA         SUNNY     55  10  16 W18       30.23F
PECOS          SUNNY     60  11  14 W16G22    30.24F
PRESIDIO       FAIR      58  12  16 SW5       30.30F
SEMINOLE       SUNNY     55  10  16 SW21G28   30.17F
SNYDER         SUNNY     55  22  28 SW17      30.17F
WINK           SUNNY     57   9  14 W14       30.21F
$$
...OTHER STATIONS IN TEXAS...

CITY           SKY/WX    TMP DP  RH WIND       PRES   REMARKS
ABILENE        SUNNY     60  18  19 W18       30.19F
AMARILLO       MOSUNNY   53   9  17 SW23G32   30.02F
AUSTIN         MOSUNNY   67  26  21 VRB6      30.20F
BROWNSVILLE    SUNNY     67  41  38 N9        30.28S
CORPUS CHRISTI MOSUNNY   68  27  21 N3        30.27F
DALLAS FTW     MOSUNNY   61  26  26 W12       30.16F
DEL RIO        SUNNY     65  26  23 W10       30.24F
EL PASO        SUNNY     54   8  16 W16G22    30.30F
HOUSTON INT    MOSUNNY   66  26  22 W12       30.22F
LUBBOCK        PTSUNNY   55  11  17 SW26G33   30.10F
SAN ANGELO     SUNNY     62  18  18 W15G21    30.22S
SAN ANTONIO    MOSUNNY   67  26  21 W8        30.22F
WACO           MOSUNNY   64  25  22 W12       30.19F
WICHITA FALLS  NOT AVBL
$$
...OTHER LOCATIONS IN NEW MEXICO...

CITY           SKY/WX    TMP DP  RH WIND       PRES   REMARKS
ALAMAGORDO     SUNNY     50   1  13 NW3       30.31F
ALBUQUERQUE    MOSUNNY   48   3  15 W10       30.28F
CANNON AFB     NOT AVBL
CLOVIS         MOSUNNY   55   7  14 W30G39    30.05F
HOLLOMAN AFB   SUNNY     52   5  14 N5        30.29F
ROSWELL        SUNNY     60   6  11 SW9       30.15F
RUIDOSO        SUNNY     43  -8  11 NW24G33   30.25R WCI  33
SANTA FE       SUNNY     43   5  20 N14       30.22F WCI  36
TRUTH OR CONSE SUNNY     53  -1  11 S13       30.27F
TUCUMCARI      SUNNY     56  12  17 W20G30    30.01F
$$

USA.gov is the U.S. government's official web portal to all federal, state and local government web resources and services.